Fergus Falls, MN

2:42 AM CST on November 18, 2019 (GMT -0600)
Fergus Falls Municipal-Mickelson

Weather History for KFFM - September, 2019

Change the Weather History Date:

Thursday, September 26, 2019

  Actual Average Record
Temperature  
Mean Temperature 52 °F -  
Max Temperature 62 °F 66 °F 89 °F (1974)
Min Temperature 41 °F 41 °F 22 °F (1965)
Degree Days  
Heating Degree Days 14    
Growing Degree Days 2 (Base 50)    
Moisture  
Dew Point 44 °F    
Average Humidity 72    
Maximum Humidity 93    
Minimum Humidity 52    
Precipitation  
Precipitation 0.00 in - - ()
Sea Level Pressure  
Sea Level Pressure 29.76 in    
Wind  
Wind Speed 7 mph ()    
Max Wind Speed 15 mph    
Max Gust Speed 21 mph    
Visibility 10.0 miles    
Events Rain    
Averages and records for this station are not official NWS values.
T = Trace of Precipitation, MM = Missing Value Source: Averaged Metar Reports

Daily Weather History Graph

Daily Weather History Graph

Search for Another Location

Airport or City:

Astronomy

Sep. 26, 2019 Rise Set
Actual Time 7:16 AM CDT 7:14 PM CDT
Civil Twilight 6:46 AM CDT 7:44 PM CDT
Nautical Twilight 6:11 AM CDT 8:19 PM CDT
Astronomical Twilight 5:35 AM CDT 8:55 PM CDT
Moon 4:10 AM CDT (9/26) 6:40 PM CDT (9/26)
Length of Visible Light 12h 58m
Length of Day
11h 58m
Waning Crescent, 6% of the Moon is Illuminated
Sep 26
Waning Crescent
Sep 28
New
Oct 5
First Quarter
Oct 13
Full
Oct 21
Last Quarter

Hourly Weather History & Observations

Time (CDT) Temp. Windchill Dew Point Humidity Pressure Visibility Wind Dir Wind Speed Gust Speed Precip Events Conditions
12:15 AM 46.4 °F 42.4 °F 41.0 °F 81% 29.88 in 10.0 mi West 8.1 mph - N/A   Clear
12:16 AM 46.4 °F 42.4 °F 41.0 °F 81% 29.88 in 10.0 mi West 8.1 mph - N/A   Clear
12:35 AM 46.4 °F 41.5 °F 41.0 °F 81% 29.88 in 10.0 mi West 10.4 mph - N/A   Clear
12:39 AM 46.4 °F 41.5 °F 42.8 °F 87% 29.88 in 10.0 mi West 10.4 mph - N/A   Clear
12:58 AM 48.2 °F - 42.8 °F 82% 29.89 in 10.0 mi WNW 9.2 mph - N/A   Clear
1:15 AM 46.4 °F 41.9 °F 42.8 °F 87% 29.89 in 10.0 mi West 9.2 mph - N/A   Clear
1:35 AM 46.4 °F 42.4 °F 42.8 °F 87% 29.89 in 10.0 mi WNW 8.1 mph - N/A   Clear
1:36 AM 46.4 °F 42.4 °F 42.8 °F 87% 29.89 in 10.0 mi WNW 8.1 mph - N/A   Clear
1:55 AM 46.4 °F 42.9 °F 42.8 °F 87% 29.89 in 10.0 mi WNW 6.9 mph - N/A   Clear
2:18 AM 44.6 °F 42.2 °F 41.0 °F 87% 29.89 in 10.0 mi WNW 4.6 mph - N/A   Clear
2:36 AM 44.6 °F 43.1 °F 41.0 °F 87% 29.88 in 10.0 mi NW 3.5 mph - N/A   Clear
2:56 AM 44.6 °F 43.1 °F 41.0 °F 87% 29.89 in 10.0 mi West 3.5 mph - N/A   Clear
3:15 AM 44.6 °F - 41.0 °F 87% 29.88 in 10.0 mi Calm Calm - N/A   Clear
3:16 AM 44.6 °F - 41.0 °F 87% 29.88 in 10.0 mi Calm Calm - N/A   Clear
3:35 AM 44.6 °F - 41.0 °F 87% 29.88 in 10.0 mi Calm Calm - N/A   Clear
3:39 AM 44.6 °F - 41.0 °F 87% 29.88 in 10.0 mi Calm Calm - N/A   Clear
3:57 AM 42.8 °F 40.1 °F 39.2 °F 87% 29.88 in 10.0 mi West 4.6 mph - N/A   Clear
4:15 AM 42.8 °F 40.1 °F 39.2 °F 87% 29.88 in 10.0 mi West 4.6 mph - N/A   Clear
4:35 AM 42.8 °F 40.1 °F 39.2 °F 87% 29.88 in 10.0 mi West 4.6 mph - N/A   Clear
4:55 AM 42.8 °F - 39.2 °F 87% 29.88 in 10.0 mi Calm Calm - N/A   Clear
4:56 AM 42.8 °F - 39.2 °F 87% 29.88 in 10.0 mi Calm Calm - N/A   Clear
5:18 AM 41.0 °F 38.0 °F 39.2 °F 93% 29.89 in 10.0 mi SW 4.6 mph - N/A   Clear
5:36 AM 41.0 °F 38.0 °F 39.2 °F 93% 29.88 in 10.0 mi SW 4.6 mph - N/A   Clear
5:56 AM 42.8 °F 41.1 °F 41.0 °F 93% 29.88 in 10.0 mi SSW 3.5 mph - N/A   Clear
6:15 AM 41.0 °F - 39.2 °F 93% 29.88 in 10.0 mi Calm Calm - N/A   Clear
6:16 AM 42.8 °F - 39.2 °F 87% 29.88 in 10.0 mi Calm Calm - N/A   Clear
6:35 AM 42.8 °F 39.3 °F 39.2 °F 87% 29.87 in 10.0 mi South 5.8 mph - N/A   Clear
6:57 AM 42.8 °F 41.1 °F 39.2 °F 87% 29.87 in 10.0 mi South 3.5 mph - N/A   Clear
7:15 AM 42.8 °F 41.1 °F 39.2 °F 87% 29.87 in 10.0 mi South 3.5 mph - N/A   Clear
7:35 AM 42.8 °F - 41.0 °F 93% 29.86 in 10.0 mi Calm Calm - N/A   Clear
7:36 AM 44.6 °F - 41.0 °F 87% 29.86 in 10.0 mi Calm Calm - N/A   Clear
7:55 AM 44.6 °F 42.2 °F 41.0 °F 87% 29.86 in 10.0 mi SSE 4.6 mph - N/A   Clear
7:56 AM 44.6 °F 42.2 °F 41.0 °F 87% 29.86 in 10.0 mi SSE 4.6 mph - N/A   Clear
8:18 AM 44.6 °F 43.1 °F 42.8 °F 93% 29.86 in 10.0 mi South 3.5 mph - N/A   Clear
8:35 AM 46.4 °F 42.9 °F 44.6 °F 93% 29.87 in 10.0 mi SSW 6.9 mph - N/A   Clear
8:55 AM 48.2 °F - 44.6 °F 87% 29.86 in 10.0 mi SSW 8.1 mph - N/A   Clear
8:56 AM 48.2 °F - 44.6 °F 87% 29.86 in 10.0 mi SSW 8.1 mph - N/A   Clear
9:15 AM 48.2 °F - 44.6 °F 87% 29.86 in 10.0 mi South 6.9 mph - N/A   Clear
9:16 AM 48.2 °F - 44.6 °F 87% 29.86 in 10.0 mi SSW 6.9 mph - N/A   Clear
9:38 AM 51.8 °F - 44.6 °F 76% 29.86 in 10.0 mi SW 5.8 mph - N/A   Clear
9:56 AM 51.8 °F - 44.6 °F 76% 29.86 in 10.0 mi SSW 5.8 mph - N/A   Clear
10:16 AM 53.6 °F - 44.6 °F 72% 29.86 in 10.0 mi SW 9.2 mph - N/A   Clear
10:35 AM 53.6 °F - 46.4 °F 77% 29.86 in 10.0 mi SW 8.1 mph - N/A   Clear
10:36 AM 53.6 °F - 46.4 °F 77% 29.86 in 10.0 mi SW 8.1 mph - N/A   Clear
10:55 AM 55.4 °F - 46.4 °F 72% 29.85 in 10.0 mi South 5.8 mph - N/A   Clear
10:59 AM 55.4 °F - 46.4 °F 72% 29.85 in 10.0 mi SSW 8.1 mph - N/A   Clear
11:16 AM 55.4 °F - 46.4 °F 72% 29.85 in 10.0 mi SSW 8.1 mph - N/A   Clear
11:35 AM 57.2 °F - 46.4 °F 67% 29.84 in 10.0 mi SSW 12.7 mph - N/A   Clear
11:55 AM 59.0 °F - 46.4 °F 63% 29.83 in 10.0 mi SSW 12.7 mph - N/A   Clear
11:56 AM 59.0 °F - 46.4 °F 63% 29.83 in 10.0 mi SSW 12.7 mph - N/A   Clear
12:15 PM 60.8 °F - 46.4 °F 59% 29.83 in 10.0 mi SW 10.4 mph - N/A   Clear
12:20 PM 60.8 °F - 46.4 °F 59% 29.83 in 10.0 mi SW 10.4 mph - N/A   Clear
12:37 PM 60.8 °F - 44.6 °F 55% 29.82 in 10.0 mi SW 10.4 mph - N/A   Clear
12:55 PM 62.6 °F - 46.4 °F 55% 29.81 in 10.0 mi SSW 8.1 mph - N/A   Clear
1:15 PM 62.6 °F - 46.4 °F 55% 29.80 in 10.0 mi SW 11.5 mph - N/A   Clear
1:35 PM 62.6 °F - 46.4 °F 55% 29.79 in 10.0 mi SW 10.4 mph - N/A   Clear
1:59 PM 62.6 °F - 44.6 °F 52% 29.78 in 10.0 mi SW 12.7 mph - N/A   Clear
2:16 PM 62.6 °F - 44.6 °F 52% 29.77 in 10.0 mi SSW 12.7 mph - N/A   Clear
2:35 PM 62.6 °F - 46.4 °F 55% 29.76 in 10.0 mi SSW 9.2 mph - N/A   Clear
2:36 PM 62.6 °F - 46.4 °F 55% 29.76 in 10.0 mi SSW 9.2 mph - N/A   Clear
2:55 PM 62.6 °F - 46.4 °F 55% 29.75 in 10.0 mi SSW 11.5 mph - N/A   Clear
2:56 PM 62.6 °F - 46.4 °F 55% 29.75 in 10.0 mi SSW 11.5 mph - N/A   Clear
3:15 PM 62.6 °F - 46.4 °F 55% 29.73 in 10.0 mi SSW 9.2 mph - N/A   Clear
3:38 PM 60.8 °F - 46.4 °F 59% 29.71 in 10.0 mi South 13.8 mph - N/A   Scattered Clouds
3:55 PM 60.8 °F - 46.4 °F 59% 29.70 in 10.0 mi SSW 11.5 mph 17.3 mph N/A   Scattered Clouds
4:15 PM 60.8 °F - 46.4 °F 59% 29.68 in 10.0 mi South 8.1 mph - N/A   Scattered Clouds
4:16 PM 60.8 °F - 46.4 °F 59% 29.68 in 10.0 mi South 6.9 mph - N/A   Scattered Clouds
4:35 PM 60.8 °F - 46.4 °F 59% 29.66 in 10.0 mi SE 5.8 mph - N/A   Overcast
4:36 PM 60.8 °F - 46.4 °F 59% 29.66 in 10.0 mi SE 5.8 mph - N/A   Overcast
4:58 PM 60.8 °F - 46.4 °F 59% 29.66 in 10.0 mi SSE 5.8 mph - N/A   Mostly Cloudy
5:16 PM 60.8 °F - 46.4 °F 59% 29.65 in 10.0 mi SE 6.9 mph - N/A   Overcast
5:36 PM 60.8 °F - 44.6 °F 55% 29.63 in 10.0 mi SE 9.2 mph - N/A   Overcast
5:56 PM 60.8 °F - 44.6 °F 55% 29.62 in 10.0 mi SE 10.4 mph - N/A   Overcast
6:15 PM 59.0 °F - 46.4 °F 63% 29.63 in 10.0 mi SE 9.2 mph - N/A Rain Light Rain
6:37 PM 59.0 °F - 46.4 °F 63% 29.62 in 10.0 mi SE 9.2 mph - N/A   Mostly Cloudy
6:55 PM 59.0 °F - 46.4 °F 63% 29.61 in 10.0 mi SE 9.2 mph - N/A   Mostly Cloudy
7:15 PM 59.0 °F - 46.4 °F 63% 29.60 in 10.0 mi SE 9.2 mph - N/A   Overcast
7:35 PM 59.0 °F - 46.4 °F 63% 29.59 in 10.0 mi SE 10.4 mph - N/A   Overcast
7:39 PM 59.0 °F - 46.4 °F 63% 29.59 in 10.0 mi SE 11.5 mph - N/A   Overcast
7:57 PM 59.0 °F - 46.4 °F 63% 29.58 in 10.0 mi SE 11.5 mph - N/A   Overcast
8:16 PM 59.0 °F - 46.4 °F 63% 29.58 in 10.0 mi SSE 10.4 mph - N/A   Scattered Clouds
8:35 PM 59.0 °F - 48.2 °F 67% 29.57 in 10.0 mi SE 10.4 mph - N/A   Clear
8:36 PM 59.0 °F - 48.2 °F 67% 29.57 in 10.0 mi SE 10.4 mph - N/A   Clear
8:55 PM 60.8 °F - 46.4 °F 59% 29.56 in 10.0 mi SE 11.5 mph - N/A   Clear
8:56 PM 60.8 °F - 46.4 °F 59% 29.56 in 10.0 mi SSE 11.5 mph - N/A   Clear
9:18 PM 60.8 °F - 46.4 °F 59% 29.54 in 10.0 mi SSE 15.0 mph - N/A   Scattered Clouds
9:36 PM 59.0 °F - 46.4 °F 63% 29.53 in 10.0 mi SSE 12.7 mph - N/A   Mostly Cloudy
9:55 PM 59.0 °F - 46.4 °F 63% 29.51 in 10.0 mi SSE 15.0 mph 19.6 mph N/A   Overcast
9:56 PM 59.0 °F - 46.4 °F 63% 29.51 in 10.0 mi SSE 13.8 mph 19.6 mph N/A   Overcast
10:16 PM 60.8 °F - 46.4 °F 59% 29.51 in 10.0 mi South 15.0 mph 20.7 mph N/A   Overcast
10:35 PM 60.8 °F - 46.4 °F 59% 29.49 in 10.0 mi SSE 15.0 mph - N/A   Overcast
10:39 PM 60.8 °F - 46.4 °F 59% 29.50 in 10.0 mi South 12.7 mph - N/A   Overcast
10:57 PM 59.0 °F - 46.4 °F 63% 29.50 in 10.0 mi South 11.5 mph - N/A   Overcast
11:15 PM 59.0 °F - 46.4 °F 63% 29.50 in 10.0 mi South 10.4 mph - N/A   Scattered Clouds
11:35 PM 59.0 °F - 46.4 °F 63% 29.50 in 10.0 mi SSW 11.5 mph - N/A   Mostly Cloudy
11:36 PM 59.0 °F - 46.4 °F 63% 29.50 in 10.0 mi SSW 11.5 mph - N/A   Mostly Cloudy
11:55 PM 59.0 °F - 46.4 °F 63% 29.50 in 10.0 mi SSW 9.2 mph - N/A   Scattered Clouds